COSMOS 1275 DEB, 42128

Orbit data source: Space-Track

COSMOS 1275 DEB, 42128 is space debris in LEO originally from a launch on Thu, 04 Jun 1981 UTC launched from the Plesetsk Missile And Space Complex (PKMTR). Debris objects in space refer to the collection of defunct objects orbiting the Earth. Examples of debris include non-operational satellites, rocket bodies, and fragments generated from explosions, collisions, or faulty payload assembly.

Loading next visibility...
Identifier
42128, 1981-053QQ
Orbit
LEO
Country
Flag of CISCIS
Related business
Manufacturer
Unknown
Mission
Spacecraft
Bus & Motor
Unknown
Mass
Unknown
Launch date (UTC)
1981-06-04 (45 years ago)
Launch vehicle
Unknown
Launch site
Plesetsk Missile And Space Complex (PKMTR)
Object type
Payload
Rocket body
Debris
Shape & HBR
Unknown shape, 0.1 m
Radar Cross Section
Small (<0.1 m²)

Expand to show TLE details & history
Last TLE update: 6 days ago

TLE from 6 days ago
0 COSMOS 1275 DEB
1 42128U 81053QQ  25343.66344869  .00001707  00000-0  12141-2 0  9993
2 42128  82.9273 124.0134 0025520 113.9706 263.1093 13.96818552613389
Epoch: 2025-12-09T15:55Z
TLE epoch observation values (Epoch: 2025-12-09T15:55:21.966Z)
Latitude
16.64239°
Longitude
168.64129°
Altitude
909.406 km
Speed
7.397 km/s
True Right ascension
08h 24m 30s
True Declination
16° 33' 01"
Sunlit
Object was in full shadow at epoch
Visualization orbit readout
Latitude
Unknown
Longitude
Unknown
Altitude
Unknown
Speed
Unknown
Apparent Right ascension
Unknown
Apparent Declination
Unknown
Sunlit
N/A
Visualization observer readout
Local Sidereal Time
12:38:25
Azimuth
Unknown
Elevation
Unknown
Doppler factor
Unknown
Orbital elements
Apogee altitude
920.531 km
Perigee altitude
883.373 km
Semi-major axis
7,280.089 km
Eccentricity
0.00255
Inclination
82.9273°
RAAN
124.0134°
Arg. of periapsis
113.9706°
True anomaly
262.81909°
Mean anomaly
263.1093°
Eccentric anomaly
262.96418°
Mean motion
3.49412 °/min
Orbital period
103.03 mins
BSTAR
0.0012141
Loading maneuver chart data...
Computing Atmospheric mass density...
Loading historical data...
Loading historical data...
Loading historical data...
Loading historical data...
Loading historical data...
Loading historical data...
Loading historical data...

Documentation

Showing up to 5 results
|